Погода в Уюке

Погода в Уюке : погода сейчас, прогноз погоды и архив. Всё, что Вы хотите узнать о погоде в Уюке!

Поиск расширенной информации на нашем сайте:

Другие новости

Новости СМИ2

Главная страница сайта

Новости сайта

02.10.2013

Напоминаем, что на нашем новом сайте вы можете получить высокодетализированные прогнозы погоды по пунктам России, СНГ и мира (включающие важные для авиации метеовеличины, такие как направление и скорость ветра, видимость, явления погоды, количество и форма облачности, нижняя и верхняя граница облачности), а также ознакомиться с разнообразными материалами по авиационной метеорологии и подборкой полезных ссылок на эту тему.

Сайт Метеоцентр.Азия посвящён разработке технологий оптимизации авиаметеорологического обслуживания, включая проектирование и перспективное создание нескольких автоматизированных авиаметеорологических систем:
- система выпуска высокодетальных прогностических карт явлений погоды для нижнего воздушного пространства по России и ближнему зарубежью;
- система верификации прогнозов TAF (выпускаемых синоптиками официальных АМСГ РФ и ближнего зарубежья) и AUTOTAF (выпускаемых сайтом Метеоцентр.Азия) - выявление ошибок, онлайн-сопоставление с фактической погодой METAR, автоматическое внесение коррективов в прогнозы при резком отклонении фактической погоды от прогноза, подсчёт оправдываемости прогнозов по элементам и в целом;
- система обработки, анализа и отображения авиаметеорологической информации для применения провайдерами метеорологической информации.

Рекомендуем: мольберт детский

Погода в Уюке - сегодня

Время (UTC), дата Ветер
(°,м/с) 
Видим.   Явления Облачность Т
(°С)
Тd
(°С)
f(%) Тe
(°С)
Pmin
(гПа)
dP
(гПа)
Po
(мм)
O2
(г/м3)
Тmin Tmax R s Состояние
почвы
06 25.02.17 190 (Ю) 20000 м    10/10 1000 м 
[Sc]
+3.8 -0.2 75 +3  1024.6  2.8  734  292           
09 25.02.17 230 (ЮЗ) 20000 м    9/0 средняя 
[Ac lent]
+2.7 -1.5 74 +2  1025.2  0.2  734  293           
12 25.02.17 270 (З) 20000 м    9/0 средняя 
[Ac lent]
+2.6 -1.6 74 +1  1026  0.8  735  293           
15 25.02.17 290 (З) 20000 м    3/0 верхняя 
[Ci sp]
+0.7 -3.2 75 1029.4  737  297    +2.7       
18 25.02.17 270 (З) 20000 м    3/0 верхняя 
[Ci sp]
-0.9 -4.4 77 1032  2.1  739  299    +2.7       
21 25.02.17 300 (СЗ) 20000 м    4/0 верхняя 
[Ci sp]
-2.2 -5.6 77 -2  1033.5  1.2  740  301           
00 26.02.17 тихо ()   20000 м    10/0 средняя 
[Ac As]
-2.6 -5.6 80 -3  1033.2  -0.3  739  301           
06 26.02.17 110 (В) 20000 м    3/0 верхняя 
[Ci sp]
-0.3 -5.9 66 -1  1032.6  -0.5  739  299           
09 26.02.17 090 (В) 20000 м    8/0 верхняя 
[Ci sp]
+2.1 -4.7 61 +1  1029.6  -2.4  737  295           
12 26.02.17 090 (В) 20000 м    9/0 верхняя 
[Ci sp]
+0.9 -4 70 1028.7  -1.1  737  296           
15 26.02.17 090 (В) 20000 м    8/0 верхняя 
[Ci sp]
-1.1 -5.8 70 -3  1028.1  -1  736  298    +2.1       
18 26.02.17 080 (В) 20000 м    8/0 средняя, верхняя 
[Ac trans|Ci sp]
-2.5 -6.5 74 -4  1026.6  -1.6  735  299    +2.1       
21 26.02.17 090 (В) 20000 м    6/0 средняя, верхняя 
[Ac trans|Ci sp]
-4.2 -8 75 -4  1025.9  -0.9  734  301           
00 27.02.17 100 (В) 20000 м    3/0 верхняя 
[Ci sp]
-5.3 -8.6 78 -5  1024.2  -1.8  733  302           
06 27.02.17 120 (ЮВ) 20000 м    ясно 
-2.9 -9.6 60 -4  1025  0.9  733  300           
09 27.02.17 140 (ЮВ) 20000 м    ясно 
+0.7 -5.4 64 -1  1024.3  733  295           
12 27.02.17 150 (ЮВ) 20000 м    ясно 
+2.1 -3.6 66 +1  1023.9  733  294           
15 27.02.17 100 (В) 20000 м    ясно 
-1.7 -6.5 70 -1  1025.4  0.6  734  298    +2.1       
18 27.02.17 090 (В) 20000 м    ясно 
-4.1 -8.3 73 -4  1025.8  0.2  734  301    +2.1       
21 27.02.17 тихо ()   20000 м    ясно 
-5.6 -9 77 -6  1026.4  0.3  734  303           
00 28.02.17 120 (ЮВ) 20000 м    ясно 
-6 -9.1 79 -6  1025.7  -0.9  734  303           
06 28.02.17 320 (СЗ) 4000 м  дымка  ясно 
-0.7 -4.6 75 1026.3  0.9  735  297           
09 28.02.17 080 (В) 0500 м  туман  ясно 
-0.3 -3 82 1025.9  -0.4  734  297           
12 28.02.17 270 (З) 20000 м  в посл. час туман  ясно 
+0 -3 80 +1  1025.5  -0.2  734  296           
15 28.02.17 320 (СЗ) 20000 м    ясно 
-2.3 -5.2 80 -3  1027  0.9  735  299    +0       
Время (UTC), дата Ветер
(°,м/с) 
Видим.   Явления Облачность Т
(°С)
Тd
(°С)
f(%) Тe
(°С)
Pmin
(гПа)
dP
(гПа)
Po
(мм)
O2
(г/м3)
Тmin Tmax R s Состояние
почвы

Для получения пояснительной информации подведите курсор к названию столбца.

ПОГОДА в Уюке - архив

Всё, что Вы хотите узнать о погоде в Уюке - удобно и подробно!

Выберите нужную дату (начиная с 1 января 2015* года) и нажмите кнопку "Найти".
Будут отображены архивные сводки погоды по пункту Уюк, начиная с указанной даты.


Отображать данные в формате CSV (для использования в таблицах Excel)


Внимание! Наш архив погоды предназначен исключительно для личного некоммерческого использования в познавательных целях. Если Вам необходимы официальные справки о состоянии погоды (для производственных, юридических, коммерческих и т.п. целей), обращайтесь в органы Росгидромета.

*Примечание: данная дата относится к архиву по метеостанциям СССР (Россия, СНГ, Балтия).
Архив по метеостанциям Зарубежной Европы и Азии (кроме Китая) хранится 10 дней, по другим регионам земного шара (Китай, Африка, Америка, Австралия, Океания) - 1 день.

Уюк - район местоположения метеостанции


Название, широта, долгота, высота метеостанции:
Уюк 43.8°ш. 70.9°д. 366 м над ур. моря [Казахстан]

Дополнительная информация

В oтличие oт бoльшинства пoгoдных сайтoв мы публикуем пoдрoбную метеoинфoрмацию в детальнoм прoфессиoнальнoм фoрмате.

Характеристики температуры и влажнoсти вoздуха измеряются на высoте 2 м в тени вдали oт зданий и деревьев.
Скoрoсть ветра измеряется на высoте 10 м (на урoвне рoста челoвека скoрoсть ветра ниже в 1.5-2 раза). Если метеoстанция нахoдится в гoрoде или в лесу, тo скoрoсть ветра занижена на 2-4 м/с пo сравнению с oткрытым местoм. Скoрoсть ветра над акватoриями крупных рек и oзёр, а также на вершинах хoлмoв на 2-5 м/с выше, чем в oбычных услoвиях.
Атмoсфернoе давление в разных тoчках местнoсти мoжет значительнo oтличаться oт давления на метеoстанции, в зависимoсти oт услoвий рельефа (при пoдъёме на 10 м давление пoнижается примернo на 1 мм рт.ст.).